Hill AFB, UT

10:45 AM MST on February 27, 2017 (GMT -0700)
Hill Air Force Base

Weather History for KHIF - August, 2013

Change the Weather History Date:

Friday, August 16, 2013

  Actual Average Record
Temperature  
Mean Temperature 79 °F -  
Max Temperature 93 °F 84 °F 95 °F (2007)
Min Temperature 65 °F 61 °F 55 °F (2008)
Cooling Degree Days 14    
Growing Degree Days 29 (Base 50)    
Moisture  
Dew Point 31 °F    
Average Humidity 18    
Maximum Humidity 24    
Minimum Humidity 11    
Precipitation  
Precipitation 0.00 in - - ()
Sea Level Pressure  
Sea Level Pressure 29.98 in    
Wind  
Wind Speed 14 mph (ESE)    
Max Wind Speed 18 mph    
Max Gust Speed -    
Visibility 10 miles    
Events      
Averages and records for this station are not official NWS values.
T = Trace of Precipitation, MM = Missing Value Source: NWS Daily Summary

Daily Weather History Graph

Daily Weather History Graph

Search for Another Location

Airport or City:

Trip Planner

Search our weather history database for the weather conditions in past years. The results will help you decide how hot, cold, wet, or windy it might be!

Date:

Astronomy

Aug. 16, 2013 Rise Set
Actual Time 6:38 AM MDT 8:24 PM MDT
Civil Twilight 6:09 AM MDT 8:54 PM MDT
Nautical Twilight 5:33 AM MDT 9:29 PM MDT
Astronomical Twilight 4:54 AM MDT 10:07 PM MDT
Moon 4:48 PM MDT (8/16) 1:44 AM MDT (8/16)
Length of Visible Light 14h 44m
Length of Day
13h 45m
Waxing Gibbous, 75% of the Moon is Illuminated
Aug 16
Waxing Gibbous
Aug 20
Full
Aug 28
Last Quarter
Sep 5
New
Sep 12
First Quarter

Hourly Weather History & Observations

Time (MDT) Temp. Dew Point Humidity Pressure Visibility Wind Dir Wind Speed Gust Speed Precip Events Conditions
12:58 AM 73.8 °F 25.3 °F 16% 29.87 in 10.0 mi ESE 16.1 mph - N/A   Clear
1:58 AM 72.5 °F 24.3 °F 16% 29.87 in 10.0 mi ESE 17.3 mph - N/A   Clear
2:58 AM 69.3 °F 25.7 °F 20% 29.88 in 10.0 mi ESE 18.4 mph - N/A   Clear
3:58 AM 68.5 °F 25.7 °F 20% 29.89 in 10.0 mi ESE 18.4 mph - N/A   Clear
4:58 AM 66.9 °F 25.0 °F 21% 29.90 in 10.0 mi ESE 17.3 mph - N/A   Clear
5:58 AM 65.8 °F 25.2 °F 21% 29.92 in 10.0 mi ESE 16.1 mph - N/A   Clear
6:58 AM 65.5 °F 25.2 °F 22% 29.94 in 10.0 mi ESE 16.1 mph - N/A   Clear
7:58 AM 66.7 °F 26.1 °F 22% 29.96 in 10.0 mi ESE 17.3 mph - N/A   Scattered Clouds
8:58 AM 70.0 °F 27.9 °F 21% 30.16 in 10.0 mi ESE 17.3 mph - N/A   Partly Cloudy
9:58 AM 74.7 °F 30.0 °F 19% 30.16 in 10.0 mi ESE 15.0 mph - N/A   Partly Cloudy
10:58 AM 81.5 °F 33.1 °F 17% 30.17 in 10.0 mi ESE 9.2 mph - N/A   Partly Cloudy
11:58 AM 88.5 °F 39.0 °F 17% 30.17 in 10.0 mi South 13.8 mph - N/A   Partly Cloudy
12:58 PM 90.9 °F 35.2 °F 14% 30.15 in 10.0 mi South 10.4 mph - N/A   Partly Cloudy
1:58 PM 92.5 °F 33.4 °F 12% 29.94 in 10.0 mi WNW 5.8 mph - N/A   Clear
2:58 PM 91.4 °F 32.7 °F 12% 29.93 in 10.0 mi West 6.9 mph - N/A   Clear
3:58 PM 93.0 °F 31.8 °F 11% 29.92 in 10.0 mi SW 8.1 mph - N/A   Clear
4:58 PM 90.7 °F 32.9 °F 13% 29.92 in 10.0 mi WSW 5.8 mph - N/A   Clear
5:58 PM 90.9 °F 35.2 °F 14% 29.91 in 10.0 mi NE 3.5 mph - N/A   Clear
6:58 PM 91.2 °F 32.5 °F 12% 29.89 in 10.0 mi ENE 3.5 mph - N/A   Clear
7:58 PM 89.2 °F 35.4 °F 15% 29.89 in 10.0 mi Calm Calm - N/A   Clear
8:58 PM 82.2 °F 36.5 °F 19% 29.91 in 10.0 mi ESE 8.1 mph - N/A   Clear
9:58 PM 80.2 °F 35.1 °F 20% 29.90 in 10.0 mi ESE 12.7 mph - N/A   Clear
10:58 PM 77.7 °F 35.4 °F 22% 30.09 in 10.0 mi ESE 15.0 mph - N/A   Clear
11:58 PM 76.6 °F 36.7 °F 24% 30.09 in 10.0 mi ESE 17.3 mph - N/A   Clear